Weather History for KBVO - April, 2013

Change the Weather History Date:

Tuesday, April 30, 2013

  Actual Average Record
Temperature  
Mean Temperature 74 °F -  
Max Temperature 84 °F 76 °F 92 °F (1959)
Min Temperature 63 °F 52 °F 36 °F (2005)
Cooling Degree Days 9    
Growing Degree Days 24 (Base 50)    
Moisture  
Dew Point 55 °F    
Average Humidity 53    
Maximum Humidity 73    
Minimum Humidity 32    
Precipitation  
Precipitation 0.00 in - - ()
Sea Level Pressure  
Sea Level Pressure 29.74 in    
Wind  
Wind Speed 11 mph (South)    
Max Wind Speed 21 mph    
Max Gust Speed 30 mph    
Visibility 10 miles    
Events      
Averages and records for this station are not official NWS values.
T = Trace of Precipitation, MM = Missing Value Source: NWS Daily Summary

Daily Weather History Graph

Daily Weather History Graph

Search for Another Location

Airport or City:

Trip Planner

Search our weather history database for the weather conditions in past years. The results will help you decide how hot, cold, wet, or windy it might be!

Date:

Astronomy

Apr. 30, 2013 Rise Set
Actual Time 6:30 AM CDT 8:12 PM CDT
Civil Twilight 6:03 AM CDT 8:39 PM CDT
Nautical Twilight 5:29 AM CDT 9:13 PM CDT
Astronomical Twilight 4:54 AM CDT 9:48 PM CDT
Moon 12:34 AM CDT (4/30) 11:02 AM CDT (4/30)
Length of Visible Light 14h 36m
Length of Day
13h 41m
Waning Gibbous, 70% of the Moon is Illuminated
Apr 30
Waning Gibbous
May 2
Last Quarter
May 9
New
May 17
First Quarter
May 24
Full

Hourly Weather History & Observations

Time (CDT) Temp. Heat Index Dew Point Humidity Pressure Visibility Wind Dir Wind Speed Gust Speed Precip Events Conditions
12:53 AM 71.1 °F - 55.0 °F 57% 29.70 in 10.0 mi South 9.2 mph - N/A   Clear
1:53 AM 71.1 °F - 55.0 °F 57% 29.71 in 10.0 mi South 9.2 mph 19.6 mph N/A   Clear
2:53 AM 70.0 °F - 57.0 °F 63% 29.72 in 10.0 mi SSW 11.5 mph 17.3 mph N/A   Clear
3:53 AM 69.1 °F - 57.0 °F 65% 29.73 in 10.0 mi SSW 9.2 mph - N/A   Clear
4:53 AM 66.0 °F - 57.0 °F 73% 29.74 in 10.0 mi South 6.9 mph - N/A   Clear
5:53 AM 66.0 °F - 55.0 °F 68% 29.75 in 10.0 mi South 8.1 mph - N/A   Clear
6:53 AM 64.9 °F - 55.0 °F 70% 29.77 in 10.0 mi South 5.8 mph - N/A   Clear
7:53 AM 68.0 °F - 57.0 °F 68% 29.78 in 10.0 mi South 9.2 mph - N/A   Clear
8:53 AM 72.0 °F - 57.9 °F 61% 29.77 in 10.0 mi South 10.4 mph 17.3 mph N/A   Clear
9:53 AM 75.9 °F - 57.9 °F 54% 29.77 in 10.0 mi South 16.1 mph 26.5 mph N/A   Clear
10:53 AM 78.1 °F - 57.9 °F 50% 29.75 in 10.0 mi South 17.3 mph 28.8 mph N/A   Clear
11:53 AM 82.0 °F 82.0 °F 57.9 °F 44% 29.75 in 10.0 mi SSW 17.3 mph 26.5 mph N/A   Clear
12:53 PM 82.9 °F 82.6 °F 57.9 °F 42% 29.73 in 10.0 mi South 20.7 mph 27.6 mph N/A   Clear
1:53 PM 84.0 °F 82.9 °F 55.0 °F 37% 29.72 in 10.0 mi South 16.1 mph 26.5 mph N/A   Clear
2:53 PM 84.0 °F 83.0 °F 55.9 °F 38% 29.72 in 10.0 mi SSE 18.4 mph 29.9 mph N/A   Clear
3:53 PM 84.0 °F 82.9 °F 55.0 °F 37% 29.71 in 10.0 mi SSE 16.1 mph 26.5 mph N/A   Clear
4:53 PM 84.0 °F - 52.0 °F 33% 29.70 in 10.0 mi South 13.8 mph 26.5 mph N/A   Clear
5:53 PM 82.9 °F - 50.0 °F 32% 29.71 in 10.0 mi SSE 17.3 mph 24.2 mph N/A   Clear
6:53 PM 80.1 °F - 50.0 °F 35% 29.72 in 10.0 mi SSE 12.7 mph 21.9 mph N/A   Clear
7:53 PM 78.1 °F - 51.1 °F 39% 29.73 in 10.0 mi SSE 12.7 mph - N/A   Clear
8:53 PM 73.9 °F - 51.1 °F 45% 29.74 in 10.0 mi South 6.9 mph - N/A   Clear
9:53 PM 68.0 °F - 53.1 °F 59% 29.76 in 10.0 mi SSE 4.6 mph - N/A   Clear
10:53 PM 66.9 °F - 54.0 °F 63% 29.78 in 10.0 mi South 3.5 mph - N/A   Clear
11:53 PM 63.0 °F - 54.0 °F 72% 29.79 in 10.0 mi Calm Calm - N/A   Clear